• Em Portugal
  • Lista de países
  • Para 7 dias
  • Temperatura da água
  • Mapas de satélite
  • Mapa do tempo
  • Widgets de tempo
  • user-avatar
    Iniciar Sessão

    Previsão horária em Sherpur

    Hoje, 20 Setembro, Quinta-feira

    Tempo Temperatura Precipitação Vento Pressão Humidade
    00:00 +18°C° 0 mm 2 m/s 610 mmHg 20%
    01:00 +17°C° 0 mm 2 m/s 610 mmHg 20%
    02:00 +17°C° 0 mm 2 m/s 610 mmHg 21%
    03:00 +16°C° 0 mm 2 m/s 610 mmHg 21%
    04:00 +16°C° 0 mm 2 m/s 609 mmHg 21%
    05:00 +15°C° 0 mm 2 m/s 609 mmHg 21%
    06:00 +17°C° 0 mm 2 m/s 610 mmHg 19%
    07:00 +18°C° 0 mm 2 m/s 611 mmHg 17%
    08:00 +20°C° 0 mm 2 m/s 612 mmHg 15%
    09:00 +21°C° 0 mm 2 m/s 612 mmHg 13%
    10:00 +23°C° 0 mm 2 m/s 613 mmHg 11%
    11:00 +25°C° 0 mm 2 m/s 613 mmHg 10%
    12:00 +26°C° 0 mm 2 m/s 613 mmHg 9%
    13:00 +27°C° 0 mm 2 m/s 613 mmHg 9%
    14:00 +27°C° 0 mm 2 m/s 613 mmHg 8%
    15:00 +27°C° 0 mm 2 m/s 613 mmHg 8%
    16:00 +27°C° 0 mm 3 m/s 613 mmHg 9%
    17:00 +27°C° 0 mm 3 m/s 613 mmHg 9%
    18:00 +25°C° 0 mm 3 m/s 612 mmHg 11%
    19:00 +23°C° 0 mm 2 m/s 612 mmHg 14%
    20:00 +20°C° 0 mm 2 m/s 612 mmHg 16%
    21:00 +20°C° 0 mm 2 m/s 612 mmHg 18%
    22:00 +19°C° 0 mm 2 m/s 611 mmHg 19%
    23:00 +18°C° 0 mm 2 m/s 611 mmHg 21%

    Amanhã, 21 Setembro, Sexta-feira

    Tempo Temperatura Precipitação Vento Pressão Humidade
    00:00 +17°C° 0 mm 2 m/s 611 mmHg 22%
    01:00 +17°C° 0 mm 2 m/s 611 mmHg 23%
    02:00 +16°C° 0 mm 2 m/s 611 mmHg 24%
    03:00 +16°C° 0 mm 2 m/s 611 mmHg 24%
    04:00 +15°C° 0 mm 1 m/s 610 mmHg 25%
    05:00 +15°C° 0 mm 1 m/s 610 mmHg 26%
    06:00 +16°C° 0 mm 1 m/s 611 mmHg 24%
    07:00 +19°C° 0 mm 1 m/s 612 mmHg 22%
    08:00 +20°C° 0 mm 1 m/s 613 mmHg 20%
    09:00 +21°C° 0 mm 1 m/s 613 mmHg 18%
    10:00 +23°C° 0 mm 1 m/s 614 mmHg 16%
    11:00 +24°C° 0 mm 2 m/s 614 mmHg 14%
    12:00 +25°C° 0 mm 2 m/s 614 mmHg 14%
    13:00 +26°C° 0 mm 2 m/s 614 mmHg 13%
    14:00 +26°C° 0 mm 2 m/s 614 mmHg 13%
    15:00 +26°C° 0 mm 2 m/s 613 mmHg 13%
    16:00 +26°C° 0 mm 3 m/s 613 mmHg 13%
    17:00 +26°C° 0 mm 3 m/s 613 mmHg 13%
    18:00 +24°C° 0 mm 3 m/s 613 mmHg 15%
    19:00 +23°C° 0 mm 2 m/s 613 mmHg 16%
    20:00 +20°C° 0 mm 2 m/s 612 mmHg 18%
    21:00 +19°C° 0 mm 2 m/s 612 mmHg 21%
    22:00 +19°C° 0 mm 2 m/s 612 mmHg 24%
    23:00 +19°C° 0 mm 1 m/s 612 mmHg 26%

    Depois de amanhã, 22 Setembro, Sábado

    Tempo Temperatura Precipitação Vento Pressão Humidade
    00:00 +18°C° 0 mm 1 m/s 611 mmHg 28%
    01:00 +16°C° 0 mm 1 m/s 611 mmHg 30%
    02:00 +16°C° 0 mm 1 m/s 611 mmHg 32%
    03:00 +15°C° 0 mm 1 m/s 610 mmHg 32%
    04:00 +15°C° 0 mm 1 m/s 610 mmHg 32%
    05:00 +14°C° 0 mm 1 m/s 610 mmHg 33%
    06:00 +16°C° 0 mm 1 m/s 611 mmHg 29%
    07:00 +18°C° 0 mm 1 m/s 612 mmHg 25%
    08:00 +20°C° 0 mm 1 m/s 613 mmHg 21%
    09:00 +21°C° 0 mm 1 m/s 613 mmHg 20%
    10:00 +22°C° 0 mm 1 m/s 613 mmHg 19%
    11:00 +24°C° 0 mm 2 m/s 613 mmHg 17%
    12:00 +24°C° 0 mm 2 m/s 613 mmHg 16%
    13:00 +25°C° 0 mm 2 m/s 613 mmHg 15%
    14:00 +26°C° 0 mm 3 m/s 613 mmHg 14%
    15:00 +26°C° 0 mm 3 m/s 612 mmHg 14%
    16:00 +26°C° 0 mm 3 m/s 612 mmHg 14%
    17:00 +26°C° 0 mm 3 m/s 612 mmHg 13%
    18:00 +24°C° 0 mm 3 m/s 612 mmHg 15%
    19:00 +21°C° 0 mm 2 m/s 612 mmHg 16%
    20:00 +20°C° 0 mm 2 m/s 612 mmHg 18%
    21:00 +19°C° 0 mm 2 m/s 612 mmHg 20%
    22:00 +18°C° 0 mm 2 m/s 611 mmHg 22%
    23:00 +18°C° 0 mm 1 m/s 611 mmHg 24%

    23 Setembro, Domingo

    Tempo Temperatura Precipitação Vento Pressão Humidade
    00:00 +18°C° 0 mm 1 m/s 611 mmHg 26%
    01:00 +16°C° 0 mm 1 m/s 611 mmHg 27%
    02:00 +16°C° 0 mm 1 m/s 611 mmHg 29%
    03:00 +15°C° 0 mm 1 m/s 610 mmHg 29%
    04:00 +15°C° 0 mm 1 m/s 610 mmHg 30%
    05:00 +14°C° 0 mm 1 m/s 610 mmHg 31%
    06:00 +15°C° 0 mm 1 m/s 611 mmHg 28%
    07:00 +18°C° 0 mm 1 m/s 612 mmHg 25%
    08:00 +19°C° 0 mm 1 m/s 613 mmHg 22%
    09:00 +20°C° 0 mm 1 m/s 613 mmHg 22%
    10:00 +21°C° 0 mm 1 m/s 613 mmHg 21%
    11:00 +23°C° 0 mm 2 m/s 613 mmHg 21%
    12:00 +23°C° 0 mm 2 m/s 613 mmHg 19%
    13:00 +24°C° 0 mm 2 m/s 613 mmHg 18%
    14:00 +25°C° 0 mm 2 m/s 613 mmHg 17%
    15:00 +25°C° 0 mm 2 m/s 613 mmHg 17%
    16:00 +25°C° 0 mm 3 m/s 613 mmHg 17%
    17:00 +25°C° 0 mm 3 m/s 612 mmHg 16%
    18:00 +23°C° 0 mm 2 m/s 612 mmHg 18%
    19:00 +21°C° 0 mm 2 m/s 612 mmHg 20%
    20:00 +19°C° 0 mm 2 m/s 611 mmHg 22%
    21:00 +18°C° 0 mm 2 m/s 611 mmHg 24%
    22:00 +19°C° 0 mm 1 m/s 611 mmHg 26%
    23:00 +18°C° 0 mm 1 m/s 611 mmHg 28%

    24 Setembro, Segunda-feira

    Tempo Temperatura Precipitação Vento Pressão Humidade
    00:00 +16°C° 0 mm 1 m/s 610 mmHg 30%
    01:00 +16°C° 0 mm 1 m/s 610 mmHg 32%
    02:00 +15°C° 0 mm 1 m/s 609 mmHg 34%
    03:00 +15°C° 0 mm 1 m/s 609 mmHg 34%
    04:00 +14°C° 0 mm 1 m/s 609 mmHg 35%
    05:00 +14°C° 0 mm 1 m/s 608 mmHg 36%
    06:00 +15°C° 0 mm 1 m/s 609 mmHg 32%
    07:00 +18°C° 0 mm 1 m/s 610 mmHg 29%
    08:00 +17°C° 0 mm 0 m/s 611 mmHg 25%
    09:00 +20°C° 0 mm 1 m/s 611 mmHg 23%
    10:00 +22°C° 0 mm 1 m/s 611 mmHg 21%
    11:00 +23°C° 0 mm 1 m/s 612 mmHg 18%
    12:00 +24°C° 0 mm 2 m/s 611 mmHg 17%
    13:00 +25°C° 0 mm 2 m/s 611 mmHg 16%
    14:00 +26°C° 0 mm 2 m/s 611 mmHg 14%
    15:00 +26°C° 0 mm 2 m/s 611 mmHg 15%
    16:00 +26°C° 0 mm 3 m/s 611 mmHg 15%
    17:00 +26°C° 0 mm 3 m/s 611 mmHg 15%
    18:00 +24°C° 0 mm 2 m/s 611 mmHg 18%
    19:00 +21°C° 0 mm 2 m/s 610 mmHg 21%
    20:00 +20°C° 0 mm 2 m/s 610 mmHg 23%
    21:00 +20°C° 0 mm 1 m/s 610 mmHg 26%
    22:00 +19°C° 0 mm 1 m/s 610 mmHg 28%
    23:00 +18°C° 0 mm 1 m/s 610 mmHg 30%

    25 Setembro, Terça-feira

    Tempo Temperatura Precipitação Vento Pressão Humidade
    00:00 +18°C° 0 mm 1 m/s 610 mmHg 32%
    01:00 +16°C° 0 mm 1 m/s 609 mmHg 34%
    02:00 +16°C° 0 mm 1 m/s 609 mmHg 36%
    03:00 +15°C° 0 mm 1 m/s 609 mmHg 36%
    04:00 +15°C° 0 mm 1 m/s 608 mmHg 37%
    05:00 +14°C° 0 mm 1 m/s 608 mmHg 38%
    06:00 +16°C° 0 mm 1 m/s 609 mmHg 34%
    07:00 +18°C° 0 mm 1 m/s 610 mmHg 31%
    08:00 +20°C° 0 mm 1 m/s 611 mmHg 27%
    09:00 +21°C° 0 mm 1 m/s 611 mmHg 24%
    10:00 +22°C° 0 mm 1 m/s 612 mmHg 21%
    11:00 +24°C° 0 mm 1 m/s 612 mmHg 18%
    12:00 +25°C° 0 mm 1 m/s 612 mmHg 16%
    13:00 +25°C° 0 mm 2 m/s 612 mmHg 15%
    14:00 +26°C° 0 mm 2 m/s 612 mmHg 13%
    15:00 +26°C° 0 mm 2 m/s 612 mmHg 13%
    16:00 +26°C° 0 mm 2 m/s 611 mmHg 13%
    17:00 +26°C° 0 mm 2 m/s 611 mmHg 13%
    18:00 +24°C° 0 mm 2 m/s 611 mmHg 16%
    19:00 +23°C° 0 mm 2 m/s 611 mmHg 18%
    20:00 +20°C° 0 mm 2 m/s 611 mmHg 21%
    21:00 +20°C° 0 mm 1 m/s 611 mmHg 23%
    22:00 +19°C° 0 mm 1 m/s 610 mmHg 25%
    23:00 +19°C° 0 mm 1 m/s 610 mmHg 26%
    Mostrar mais